Tracking 31027 objects as of 19-Jul-2025
HD Live streaming from Space Station
objects crossing your sky now

STARLINK-30328

Track STARLINK-30328 now!
10-day predictions
STARLINK-30328 is classified as:


NORAD ID: 57638
Int'l Code: 2023-122G
Perigee: 564.8 km
Apogee: 567.7 km
Inclination: 43.0 °
Period: 95.8 minutes
Semi major axis: 6937 km
RCS: Unknown
Launch date: August 17, 2023
Source: United States (US)
Launch site: AIR FORCE EASTERN TEST RANGE (AFETR)
Your satellite tracking list
ABS 3
Track 1 satellite(s)




NASA's NSSDC Master Catalog

Two Line Element Set (TLE):
1 57638U 23122G   25199.59553502 -.00000428  00000-0 -16606-4 0  9998
2 57638  43.0031 273.3686 0002080 280.5173  79.5435 15.02534235107138
Source of the keplerian elements: AFSPC